KF5WCW-1 Weather Reports


time (UTC)temp
C
wind
direction
speed
KPH
gust
KPH
rain 1hr
cm
rain 24hr
cm
rain mn
cm
humidity
%
barometer
mb
20260505101110 4 67 6.4 9.7 0.00 0.00 0.00 86
20260505100610 4 270 8.0 8.0 0.00 0.00 0.00 86
20260505100110 3 237 0.0 0.0 0.00 0.00 0.00 88
20260505095610 3 237 0.0 0.0 0.00 0.00 0.00 86
20260505095110 3 237 0.0 0.0 0.00 0.00 0.00 86
20260505094610 4 237 0.0 0.0 0.00 0.00 0.00 83
20260505094110 4 237 0.0 0.0 0.00 0.00 0.00 82
20260505093610 4 237 0.0 0.0 0.00 0.00 0.00 82
20260505093110 5 237 0.0 0.0 0.00 0.00 0.00 82
20260505092610 5 237 0.0 0.0 0.00 0.00 0.00 81
20260505092110 5 237 0.0 0.0 0.00 0.00 0.00 81
20260505091610 5 237 0.0 0.0 0.00 0.00 0.00 82
20260505091110 5 237 0.0 0.0 0.00 0.00 0.00 82
20260505090610 5 237 0.0 0.0 0.00 0.00 0.00 80
20260505090110 5 237 0.0 0.0 0.00 0.00 0.00 80
20260505085610 5 237 0.0 0.0 0.00 0.00 0.00 79
20260505085110 5 237 0.0 0.0 0.00 0.00 0.00 79
20260505084610 6 237 0.0 0.0 0.00 0.00 0.00 78
20260505084110 6 237 0.0 0.0 0.00 0.00 0.00 78
20260505083610 6 237 0.0 0.0 0.00 0.00 0.00 77
20260505083110 6 237 0.0 0.0 0.00 0.00 0.00 76
20260505082610 6 237 0.0 3.2 0.00 0.00 0.00 74
20260505082110 7 8 0.0 0.0 0.00 0.00 0.00 73
20260505081610 7 8 0.0 0.0 0.00 0.00 0.00 72
20260505081110 7 8 0.0 0.0 0.00 0.00 0.00 72
20260505080610 7 8 0.0 0.0 0.00 0.00 0.00 71
20260505080110 7 8 0.0 0.0 0.00 0.00 0.00 71
20260505075610 7 8 0.0 4.8 0.00 0.00 0.00 71
20260505075110 7 315 0.0 0.0 0.00 0.00 0.00 72
20260505074610 7 315 0.0 0.0 0.00 0.00 0.00 72
20260505074110 7 315 0.0 8.0 0.00 0.00 0.00 71
20260505073610 7 340 4.8 8.0 0.00 0.00 0.00 71
20260505073110 7 352 0.0 0.0 0.00 0.00 0.00 71
20260505072610 7 352 0.0 8.0 0.00 0.00 0.00 71
20260505072110 8 348 0.0 4.8 0.00 0.00 0.00 70
20260505071610 8 341 3.2 11.3 0.00 0.00 0.00 70
20260505071110 8 291 4.8 14.5 0.00 0.00 0.00 70
20260505070610 8 326 1.6 14.5 0.00 0.00 0.00 70
20260505070110 8 315 3.2 14.5 0.00 0.00 0.00 70
20260505065610 8 324 3.2 9.7 0.00 0.00 0.00 70
20260505065110 8 326 4.8 11.3 0.00 0.00 0.00 70
20260505064610 8 316 8.0 11.3 0.00 0.00 0.00 71
20260505064110 8 286 8.0 16.1 0.00 0.00 0.00 71
20260505063610 8 347 9.7 22.5 0.00 0.00 0.00 70
20260505063110 8 322 6.4 14.5 0.00 0.00 0.00 70
20260505062610 8 336 9.7 22.5 0.00 0.00 0.00 71
20260505062110 8 319 22.5 22.5 0.00 0.00 0.00 71
20260505061610 8 316 3.2 17.7 0.00 0.00 0.00 71
20260505061110 8 319 6.4 12.9 0.00 0.00 0.00 71
20260505060610 8 302 4.8 12.9 0.00 0.00 0.00 70
20260505060110 8 338 6.4 11.3 0.00 0.00 0.00 70
20260505055610 8 315 4.8 12.9 0.00 0.00 0.00 70
20260505055110 8 338 6.4 20.9 0.00 0.00 0.00 69
20260505054610 8 333 17.7 17.7 0.00 0.00 0.00 68
20260505054110 8 315 14.5 19.3 0.00 0.00 0.00 66
20260505053610 8 334 17.7 19.3 0.00 0.00 0.00 65
20260505053110 9 333 9.7 14.5 0.00 0.00 0.00 64
20260505052610 10 337 3.2 8.0 0.00 0.00 0.00 57
20260505052110 10 299 4.8 11.3 0.00 0.00 0.00 53
20260505051610 10 291 9.7 9.7 0.00 0.00 0.00 52
20260505051110 10 333 3.2 9.7 0.00 0.00 0.00 53
20260505050610 10 336 3.2 11.3 0.00 0.00 0.00 52
20260505050110 10 298 8.0 11.3 0.00 0.00 0.00 52
20260505041610 9 316 4.8 20.9 0.00 0.00 0.00 61
20260505041110 9 338 12.9 16.1 0.00 0.00 0.00 61
20260505040610 9 285 4.8 12.9 0.00 0.00 0.00 64
20260505040110 9 333 6.4 17.7 0.00 0.00 0.00 64
20260505035610 10 348 3.2 19.3 0.00 0.00 0.00 62
20260505035110 10 326 4.8 17.7 0.00 0.00 0.00 62
20260505034610 9 330 8.0 20.9 0.00 0.00 0.00 62
20260505034110 9 11 6.4 16.1 0.00 0.00 0.00 64
20260505033610 10 0 4.8 14.5 0.00 0.00 0.00 65
20260505033110 10 327 6.4 12.9 0.00 0.00 0.00 64
20260505032610 9 316 4.8 19.3 0.00 0.00 0.00 62
20260505032110 9 340 9.7 16.1 0.00 0.00 0.00 64
20260505031610 9 347 8.0 17.7 0.00 0.00 0.00 65
20260505031110 10 312 0.0 14.5 0.00 0.00 0.00 67
20260505030610 10 331 8.0 16.1 0.00 0.00 0.00 66
20260505030110 10 295 1.6 12.9 0.00 0.00 0.00 62
20260505025610 10 298 9.7 16.1 0.00 0.00 0.00 62
20260505025110 10 305 4.8 22.5 0.00 0.00 0.00 67
20260505024610 10 322 12.9 25.7 0.00 0.00 0.00 62
20260505024110 10 291 8.0 22.5 0.00 0.00 0.00 61
20260505023610 10 344 8.0 24.1 0.00 0.00 0.00 62
20260505023110 10 340 14.5 17.7 0.00 0.00 0.00 64
20260505022610 10 343 12.9 16.1 0.00 0.00 0.00 63
20260505022110 10 1 8.0 14.5 0.00 0.00 0.00 61
20260505021610 10 337 4.8 9.7 0.00 0.00 0.00 59
20260505021110 10 309 0.0 9.7 0.00 0.00 0.00 58
20260505020610 10 331 6.4 9.7 0.00 0.00 0.00 57
20260505020110 10 315 0.0 11.3 0.00 0.00 0.00 59
20260505015610 10 1 8.0 14.5 0.00 0.00 0.00 58
20260505015111 11 344 3.2 11.3 0.00 0.00 0.00 57
20260505014611 11 358 4.8 11.3 0.00 0.00 0.00 56
20260505014111 11 354 0.0 9.7 0.00 0.00 0.00 55
20260505013611 11 289 9.7 14.5 0.00 0.00 0.00 54
20260505013111 11 322 11.3 17.7 0.00 0.00 0.00 54
20260505012611 11 337 6.4 12.9 0.00 0.00 0.00 50
20260505012111 11 299 12.9 19.3 0.00 0.00 0.00 49
20260505011611 11 257 17.7 25.7 0.00 0.00 0.00 47
20260505011111 11 293 19.3 25.7 0.00 0.00 0.00 48
20260505010611 11 292 9.7 20.9 0.00 0.00 0.00 47
20260505010111 11 316 11.3 35.4 0.00 0.00 0.00 48
20260505005611 11 285 20.9 24.1 0.00 0.00 0.00 46
20260505005111 11 298 12.9 19.3 0.00 0.00 0.00 46
20260505004611 11 307 8.0 22.5 0.00 0.00 0.00 50
20260505004111 11 291 11.3 12.9 0.00 0.00 0.00 50
20260505003611 11 296 12.9 17.7 0.00 0.00 0.00 49
20260505003111 11 289 8.0 12.9 0.00 0.00 0.00 48
20260505002611 11 7 6.4 22.5 0.00 0.00 0.00 48
20260505002111 11 262 12.9 29.0 0.00 0.00 0.00 48
20260505001611 11 244 17.7 27.4 0.00 0.00 0.00 49
20260505001111 11 282 16.1 24.1 0.00 0.00 0.00 49
20260505000611 11 303 6.4 25.7 0.00 0.00 0.00 50
20260505000111 11 307 8.0 27.4 0.00 0.00 0.00 50
20260504235611 11 323 4.8 19.3 0.00 0.00 0.00 52
20260504235111 11 268 17.7 19.3 0.00 0.00 0.00 51
20260504234611 11 320 9.7 20.9 0.00 0.00 0.00 51
20260504234111 11 285 19.3 20.9 0.00 0.00 0.00 56
20260504233611 10 285 14.5 27.4 0.00 0.00 0.00 61
20260504233111 10 258 24.1 32.2 0.00 0.00 0.00 63
20260504232611 10 274 14.5 32.2 0.00 0.00 0.00 67
20260504232111 9 286 17.7 32.2 0.00 0.00 0.00 69
20260504231611 9 285 32.2 32.2 0.00 0.00 0.00 69
20260504231111 9 274 19.3 33.8 0.00 0.00 0.00 68
20260504230611 9 289 20.9 32.2 0.00 0.00 0.00 69
20260504230111 10 281 25.7 46.7 0.00 0.00 0.00 68
20260504225611 11 253 29.0 45.1 0.00 0.00 0.00 52
20260504225111 12 277 33.8 38.6 0.00 0.00 0.00 47
20260504224611 13 261 14.5 20.9 0.00 0.00 0.00 45
20260504224111 13 270 4.8 12.9 0.00 0.00 0.00 45
20260504223611 13 275 1.6 8.0 0.00 0.00 0.00 48
20260504223111 13 298 0.0 3.2 0.00 0.00 0.00 48
20260504222611 13 102 0.0 0.0 0.00 0.00 0.00 48
20260504222111 13 102 0.0 9.7 0.00 0.00 0.00 50
20260504221611 12 307 6.4 12.9 0.00 0.00 0.00 52
20260504221111 12 305 6.4 17.7 0.00 0.00 0.00 53
20260504220611 12 312 9.7 20.9 0.00 0.00 0.00 55
20260504220111 11 272 12.9 22.5 0.00 0.00 0.00 59
20260504215611 11 284 12.9 40.2 0.00 0.00 0.00 62
20260504215111 11 268 16.1 25.7 0.00 0.00 0.00 67
20260504214611 11 240 20.9 29.0 0.00 0.00 0.00 62
20260504214111 11 246 27.4 30.6 0.00 0.00 0.00 59
20260504213611 11 246 24.1 48.3 0.00 0.00 0.00 60
20260504213111 12 243 30.6 43.5 0.00 0.00 0.00 54
20260504212611 12 239 29.0 32.2 0.00 0.00 0.00 47
20260504212111 12 251 17.7 35.4 0.00 0.00 0.00 52
20260504211611 12 247 30.6 33.8 0.00 0.00 0.00 49
20260504211111 12 258 17.7 22.5 0.00 0.00 0.00 51
20260504210611 12 288 12.9 22.5 0.00 0.00 0.00 56
20260504210111 11 267 14.5 30.6 0.00 0.00 0.00 57
20260504205611 11 257 14.5 24.1 0.00 0.00 0.00 58
20260504205111 11 251 11.3 30.6 0.00 0.00 0.00 62
20260504204611 10 255 24.1 35.4 0.00 0.00 0.00 62
20260504204111 10 257 19.3 46.7 0.00 0.00 0.00 63
20260504203611 11 250 40.2 43.5 0.00 0.00 0.00 58
20260504203111 10 268 19.3 49.9 0.00 0.00 0.00 62
20260504202611 10 255 33.8 43.5 0.00 0.00 0.00 62
20260504202111 10 247 30.6 45.1 0.00 0.00 0.00 60
20260504201611 11 282 19.3 51.5 0.00 0.00 0.00 58
20260504201111 12 262 32.2 48.3 0.00 0.00 0.00 53
20260504200611 13 250 41.8 53.1 0.00 0.00 0.00 44
20260504200111 13 247 53.1 53.1 0.00 0.00 0.00 39
20260504195611 15 258 29.0 40.2 0.00 0.00 0.00 31
20260504195111 16 257 12.9 22.5 0.00 0.00 0.00 28
20260504194611 16 230 16.1 27.4 0.00 0.00 0.00 29
20260504194111 16 275 11.3 29.0 0.00 0.00 0.00 30
20260504193611 16 251 20.9 32.2 0.00 0.00 0.00 31
20260504193111 16 236 22.5 27.4 0.00 0.00 0.00 29
20260504192611 16 265 20.9 33.8 0.00 0.00 0.00 29
20260504192111 16 250 17.7 38.6 0.00 0.00 0.00 33
20260504191611 15 244 30.6 35.4 0.00 0.00 0.00 33
20260504191111 14 258 22.5 30.6 0.00 0.00 0.00 36
20260504190611 13 262 14.5 20.9 0.00 0.00 0.00 38
20260504190111 13 255 9.7 29.0 0.00 0.00 0.00 40
20260504185611 13 257 22.5 41.8 0.00 0.00 0.00 43
20260504185111 13 258 24.1 33.8 0.00 0.00 0.00 45
20260504184611 12 240 27.4 37.0 0.00 0.00 0.00 49
20260504184111 11 230 22.5 33.8 0.00 0.00 0.00 60
20260504183611 10 244 27.4 40.2 0.00 0.00 0.00 63
20260504183111 10 246 30.6 43.5 0.00 0.00 0.00 63
20260504182611 10 264 20.9 46.7 0.00 0.00 0.00 60
20260504182111 10 226 45.1 54.7 0.00 0.00 0.00 56
20260504181611 11 250 37.0 49.9 0.00 0.00 0.00 51
20260504181111 12 226 30.6 46.7 0.00 0.00 0.00 45
20260504180611 13 225 35.4 38.6 0.00 0.00 0.00 37
20260504180111 14 272 12.9 29.0 0.00 0.00 0.00 35
20260504175611 14 246 6.4 12.9 0.00 0.00 0.00 35
20260504175111 14 258 6.4 12.9 0.00 0.00 0.00 34
20260504174611 14 298 9.7 16.1 0.00 0.00 0.00 36
20260504174111 13 288 14.5 17.7 0.00 0.00 0.00 36
20260504173611 13 251 6.4 20.9 0.00 0.00 0.00 35
20260504173111 13 243 0.0 11.3 0.00 0.00 0.00 36
20260504172611 13 274 6.4 22.5 0.00 0.00 0.00 36
20260504172111 13 246 8.0 29.0 0.00 0.00 0.00 36
20260504171611 13 260 19.3 24.1 0.00 0.00 0.00 37
20260504171111 13 261 11.3 27.4 0.00 0.00 0.00 36
20260504170611 13 250 9.7 33.8 0.00 0.00 0.00 36
20260504170111 13 255 27.4 33.8 0.00 0.00 0.00 36
20260504160111 13 344 1.6 11.3 0.00 0.00 0.00 40
20260504151111 11 331 1.6 14.5 0.00 0.00 0.00 50
20260504150612 10 312 6.4 12.9 0.00 0.00 0.00 52
20260504150111 10 303 4.8 12.9 0.00 0.00 0.00 55
20260504141112 8 286 11.3 19.3 0.00 0.00 0.00 64
20260504140612 8 279 17.7 35.4 0.00 0.00 0.00 60
20260504140112 8 277 29.0 37.0 0.00 0.00 0.00 57
20260504130612 6 323 1.6 9.7 0.00 0.00 0.00 60
20260504130112 6 307 3.2 12.9 0.00 0.00 0.00 59
20260504120112 5 340 8.0 8.0 0.00 0.00 0.00 68
20260504110612 3 292 0.0 0.0 0.00 0.00 0.00 72
20260504110112 3 292 0.0 0.0 0.00 0.00 0.00 73